TimeEDT,TemperatureF,Dew PointF,Humidity,Sea Level PressureIn,VisibilityMPH,Wind Direction,Wind SpeedMPH,Gust SpeedMPH,PrecipitationIn,Events,Conditions,WindDirDegrees,DateUTC
12:58 AM,34.0,24.8,69,30.22,10.0,WNW,5.8,-,N/A,,Clear,290,2013-03-27 04:58:00
1:58 AM,34.3,24.1,66,30.22,10.0,WNW,5.8,-,N/A,,Clear,290,2013-03-27 05:58:00
2:58 AM,30.6,22.8,73,30.22,10.0,WNW,5.8,-,N/A,,Clear,300,2013-03-27 06:58:00
3:58 AM,30.7,23.4,74,30.22,10.0,WNW,6.9,-,N/A,,Clear,290,2013-03-27 07:58:00
4:58 AM,29.7,22.6,75,30.22,10.0,WNW,5.8,-,N/A,,Clear,290,2013-03-27 08:58:00
5:58 AM,28.9,23.2,79,30.24,10.0,WNW,5.8,-,N/A,,Clear,300,2013-03-27 09:58:00
6:58 AM,29.3,23.4,78,30.26,10.0,West,4.6,-,N/A,,Clear,270,2013-03-27 10:58:00
7:58 AM,30.7,24.8,79,30.27,10.0,WNW,4.6,-,N/A,,Clear,290,2013-03-27 11:58:00
8:58 AM,37.4,28.8,71,30.29,10.0,NW,5.8,-,N/A,,Clear,310,2013-03-27 12:58:00
9:58 AM,45.3,25.2,45,30.30,10.0,NW,11.5,-,N/A,,Clear,320,2013-03-27 13:58:00
10:58 AM,47.5,22.3,37,30.30,10.0,Variable,5.8,-,N/A,,Clear,0,2013-03-27 14:58:00
11:58 AM,49.8,21.2,32,30.30,10.0,NW,9.2,-,N/A,,Partly Cloudy,310,2013-03-27 15:58:00
12:58 PM,52.3,22.6,31,30.27,10.0,West,11.5,21.9,N/A,,Partly Cloudy,280,2013-03-27 16:58:00
1:58 PM,53.4,22.5,30,30.25,10.0,WSW,12.7,-,N/A,,Clear,250,2013-03-27 17:58:00
2:58 PM,54.3,23.5,30,30.22,10.0,WSW,12.7,17.3,N/A,,Clear,240,2013-03-27 18:58:00
3:58 PM,55.9,22.8,28,30.21,10.0,NW,12.7,19.6,N/A,,Clear,320,2013-03-27 19:58:00
4:58 PM,56.1,22.1,27,30.20,10.0,WNW,10.4,17.3,N/A,,Clear,300,2013-03-27 20:58:00
5:58 PM,56.3,22.3,27,30.20,10.0,WSW,10.4,-,N/A,,Clear,250,2013-03-27 21:58:00
6:58 PM,55.2,22.1,28,30.19,10.0,WSW,8.1,-,N/A,,Clear,250,2013-03-27 22:58:00
7:58 PM,50.5,22.8,34,30.20,10.0,West,5.8,-,N/A,,Clear,280,2013-03-27 23:58:00
8:58 PM,43.7,25.9,50,30.22,10.0,NNE,1.2,-,N/A,,Clear,30,2013-03-28 00:58:00
9:58 PM,40.1,29.3,65,30.23,10.0,Calm,Calm,-,N/A,,Clear,0,2013-03-28 01:58:00
10:58 PM,37.2,29.8,75,30.25,10.0,Calm,Calm,-,N/A,,Clear,0,2013-03-28 02:58:00
11:58 PM,43.9,21.9,42,30.26,10.0,NNE,5.8,-,N/A,,Clear,30,2013-03-28 03:58:00